BIKF

Keflavik International Airport

Reykjavík, Iceland
Issued Wind Visibility Ceiling Temperature Dew Point Humidity Barometer
Sep-25
05:30 UTC
130°
9 KTS
10,000+ meters Broken
19,000' AGL
C
45° F
C
39° F
81% 29.79" Hg
1009 hPa
VFR
Sep-25
05:00 UTC
120°
10 KTS
10,000+ meters Broken
19,000' AGL
C
45° F
C
41° F
87% 29.76" Hg
1008 hPa
VFR
Sep-25
04:30 UTC
120°
9 KTS
10,000+ meters Broken
19,000' AGL
C
45° F
C
41° F
87% 29.76" Hg
1008 hPa
VFR
Sep-25
04:00 UTC
130°
9 KTS
10,000+ meters Broken
19,000' AGL
C
45° F
C
41° F
87% 29.76" Hg
1008 hPa
VFR
Sep-25
03:30 UTC
150°
8 KTS
10,000+ meters Broken
19,000' AGL
C
46° F
C
41° F
82% 29.76" Hg
1008 hPa
VFR
Sep-25
03:00 UTC
160°
11 KTS
10,000+ meters Broken
19,000' AGL
C
45° F
C
41° F
87% 29.76" Hg
1008 hPa
VFR
Sep-25
02:30 UTC
160°
10 KTS
10,000+ meters Broken
22,000' AGL
C
45° F
C
41° F
87% 29.73" Hg
1007 hPa
VFR
Sep-25
02:00 UTC
170°
9 KTS
10,000+ meters Broken
22,000' AGL
C
43° F
C
41° F
93% 29.73" Hg
1007 hPa
VFR
Sep-25
01:30 UTC
170°
10 KTS
10,000+ meters Broken
22,000' AGL
C
43° F
C
41° F
93% 29.73" Hg
1007 hPa
VFR
Sep-25
01:00 UTC
170°
8 KTS
10,000+ meters Broken
22,000' AGL
C
43° F
C
41° F
93% 29.7" Hg
1006 hPa
VFR
Sep-25
00:30 UTC
170°
15 KTS
10,000+ meters Broken
22,000' AGL
C
45° F
C
41° F
87% 29.7" Hg
1006 hPa
VFR
Sep-25
00:00 UTC
170°
10 KTS
10,000+ meters   C
46° F
C
41° F
82% 29.7" Hg
1006 hPa
VFR
Sep-24
23:30 UTC
160°
11 KTS
10,000+ meters Broken
22,000' AGL
C
45° F
C
41° F
87% 29.68" Hg
1005 hPa
VFR
Sep-24
23:00 UTC
170°
9 KTS
10,000+ meters   C
41° F
C
39° F
93% 29.65" Hg
1004 hPa
VFR
Sep-24
22:30 UTC
180°
8 KTS
10,000+ meters Broken
7,000' AGL
C
43° F
C
41° F
93% 29.65" Hg
1004 hPa
VFR
Sep-24
22:00 UTC
170°
10 KTS
10,000+ meters Broken
19,000' AGL
C
43° F
C
41° F
93% 29.62" Hg
1003 hPa
VFR
Sep-24
21:30 UTC
170°
9 KTS
10,000+ meters   C
43° F
C
41° F
93% 29.62" Hg
1003 hPa
VFR
Sep-24
21:00 UTC
180°
8 KTS
10,000+ meters   C
43° F
C
39° F
87% 29.59" Hg
1002 hPa
VFR
Sep-24
20:30 UTC
180°
10 KTS
10,000+ meters   C
43° F
C
41° F
93% 29.59" Hg
1002 hPa
VFR
Sep-24
20:00 UTC
180°
10 KTS
10,000+ meters   C
43° F
C
41° F
93% 29.56" Hg
1001 hPa
VFR
Sep-24
19:30 UTC
180°
9 KTS
10,000+ meters   C
43° F
C
41° F
93% 29.53" Hg
1000 hPa
VFR
Sep-24
19:00 UTC
200°
13 KTS
10,000+ meters   C
46° F
C
43° F
87% 29.5" Hg
999 hPa
VFR
Sep-24
18:30 UTC
190°
13 KTS
10,000+ meters   C
46° F
C
43° F
87% 29.5" Hg
999 hPa
VFR
Sep-24
18:00 UTC
210°
19 KTS
10,000+ meters Broken
3,000' AGL
C
48° F
C
43° F
82% 29.47" Hg
998 hPa
MVFR
Sep-24
17:30 UTC
210°
20 KTS
10,000+ meters Broken
3,000' AGL
C
48° F
C
43° F
82% 29.44" Hg
997 hPa
MVFR
Sep-24
17:00 UTC
210°
20 KTS
10,000+ meters   C
48° F
C
41° F
76% 29.44" Hg
997 hPa
VFR
Sep-24
16:30 UTC
210°
21 KTS
10,000+ meters   C
48° F
C
41° F
76% 29.41" Hg
996 hPa
VFR
Sep-24
16:00 UTC
210°
22 KTS
10,000+ meters Broken
3,500' AGL
C
48° F
C
41° F
76% 29.38" Hg
995 hPa
VFR
Sep-24
15:30 UTC
210°
21 KTS
10,000+ meters Broken
3,000' AGL
C
46° F
C
41° F
82% 29.35" Hg
994 hPa
MVFR
Sep-24
15:00 UTC
210°
22 KTS
10,000+ meters Broken
3,100' AGL
C
46° F
C
43° F
87% 29.32" Hg
993 hPa
VFR
Sep-24
14:30 UTC
210°
22 KTS
10,000+ meters Broken
2,700' AGL
C
46° F
C
43° F
87% 29.29" Hg
992 hPa
MVFR
Sep-24
14:00 UTC
220°
21 KTS
10,000+ meters Broken
2,200' AGL
C
46° F
C
41° F
82% 29.26" Hg
991 hPa
MVFR
Sep-24
13:30 UTC
220°
24 KTS
10,000+ meters Broken
1,900' AGL
C
46° F
C
43° F
87% 29.23" Hg
990 hPa
MVFR
Sep-24
13:00 UTC
220°
25 KTS
10,000+ meters Broken
1,700' AGL
C
46° F
C
43° F
87% 29.2" Hg
989 hPa
MVFR
Sep-24
12:30 UTC
230°
21 KTS
6,003 meters Broken
2,300' AGL
C
46° F
C
43° F
87% 29.17" Hg
988 hPa
MVFR
Sep-24
12:00 UTC
240°
23 KTS
10,000+ meters Broken
4,000' AGL
C
46° F
C
43° F
87% 29.11" Hg
986 hPa
VFR
Sep-24
11:30 UTC
230°
24 KTS
10,000+ meters Broken
5,000' AGL
C
46° F
C
45° F
93% 29.08" Hg
985 hPa
VFR
Sep-24
11:00 UTC
230°
23 KTS
10,000+ meters Broken
1,100' AGL
C
46° F
C
45° F
93% 29.06" Hg
984 hPa
MVFR
Sep-24
10:30 UTC
240°
22 KTS
10,000+ meters Broken
1,300' AGL
C
48° F
C
46° F
94% 29.03" Hg
983 hPa
MVFR
Sep-24
10:00 UTC
240°
18 KTS
4,007 meters Broken
800' AGL
C
48° F
C
48° F
100% 29" Hg
982 hPa
IFR
Sep-24
09:30 UTC
190°
14 KTS
4,007 meters Broken
4,400' AGL
C
48° F
C
48° F
100% 28.97" Hg
981 hPa
IFR
Sep-24
09:00 UTC
160°
13 KTS
10,000+ meters Broken
7,000' AGL
11° C
52° F
10° C
50° F
94% 28.94" Hg
980 hPa
VFR
Sep-24
08:30 UTC
140°
14 KTS
10,000+ meters Broken
6,000' AGL
11° C
52° F
10° C
50° F
94% 28.94" Hg
980 hPa
VFR
Sep-24
08:00 UTC
130°
18 KTS
8,996 meters Broken
1,000' AGL
11° C
52° F
10° C
50° F
94% 28.94" Hg
980 hPa
MVFR
Sep-24
07:30 UTC
130°
18 KTS
8,996 meters Broken
1,000' AGL
11° C
52° F
10° C
50° F
94% 28.94" Hg
980 hPa
MVFR
Sep-24
07:00 UTC
130°
19 KTS
8,996 meters Broken
1,000' AGL
11° C
52° F
11° C
52° F
100% 28.94" Hg
980 hPa
MVFR
Sep-24
06:30 UTC
130°
21 KTS
8,996 meters Broken
1,100' AGL
11° C
52° F
11° C
52° F
100% 28.91" Hg
979 hPa
MVFR
Sep-24
06:00 UTC
130°
16 KTS
8,996 meters Broken
1,100' AGL
11° C
52° F
11° C
52° F
100% 28.91" Hg
979 hPa
MVFR